Location: Archemont
(49.1579°N, 1.7598°E)
Time: 15:10:15
(UTC+00:00)

Okean O Rocket - Pass Details

Date: 03 February 2023
Orbit: 620 x 643 km, 98.1° (Epoch: 30 March)

Event Time Altitude Azimuth Distance (km) Brightness Sun altitude
Rises 17:39:27 0° 122° (ESE) 2,919 4.6 -8.0°
Reaches altitude 10° 17:42:08 10° 105° (ESE) 2,020 3.7 -8.4°
Maximum altitude 17:45:14 19° 60° (ENE) 1,517 3.0 -8.9°
Drops below altitude 10° 17:48:21 10° 15° (NNE) 2,041 3.9 -9.4°
Sets 17:51:05 0° 358° (N) 2,959 4.9 -9.9°
